Flag for U.S.A. Weather past 2 weeks in Menominee, Michigan, U.S.A.

Now
37 °F

Overcast.


Feels Like: 30 °F
Forecast: 34 / 49 °F
Wind: 10 mph from West

Location: Menominee Weather Reporting Station

Current Time: Mar 29, 2015 at 7:05:36 PM

Latest Report: Mar 29, 2015 at 6:35 PM


Visibility: 10 mi

Pressure: 29.55 "Hg

Humidity: 87%

Dew point: 34 °F

Location of MenomineeLocation

Historic Weather in Menominee — Graph

°F

Menominee temperature yesterday

Maximum temperature yesterday: 37 °F (at 4:35 PM)
Minimum temperature yesterday: 9 °F (at 6:35 AM)
Average temperature yesterday: 24 °F

Past Weeks' High & Low Weather Summary

 TemperatureHumidityPressure
High55 °F (Mar 16, 11:15 AM)93% (Mar 15, 12:35 AM)30.38 "Hg (Mar 15, 12:35 AM)
Low9 °F (Mar 28, 6:35 AM)22% (Mar 17, 4:15 PM)29.51 "Hg (Mar 29, 3:55 PM)
Average31 °F61%30.11 "Hg
* Reported Mar 14 5:15 PM — Mar 29 5:55 PM, Menominee, Weather by CustomWeather, © 2015

Note: Actual official high and low records may vary slightly from our data, if they occured in-between our weather recording intervals... More about our weather records

Advertising

Menominee weather history for previous 24 hours

 ConditionsComfort  
Time TempWeatherWind HumidityBarometerVisibility
5:55 PM
Sun, Mar 29
36 °FCloudy.9 mph93%29.53 "Hg6 mi
5:35 PM36 °FLow clouds.8 mph93%29.53 "Hg5 mi
4:55 PM36 °FLow clouds.10 mph87%29.51 "Hg7 mi
4:15 PM34 °FLow clouds.13 mph87%29.51 "Hg5 mi
3:55 PM34 °FLow clouds.14 mph87%29.51 "Hg3 mi
3:35 PM34 °FLow clouds.13 mph87%29.52 "Hg2 mi
3:15 PM34 °FLow clouds.14 mph87%29.53 "Hg3 mi
2:55 PM34 °FLow clouds.13 mph87%29.54 "Hg1 mi
2:35 PM34 °FLow clouds.14 mph87%29.56 "Hg3 mi
2:15 PM34 °FLow clouds.21 mph87%29.57 "Hg3 mi
1:55 PM34 °FLow clouds.21 mph87%29.58 "Hg3 mi
1:35 PM34 °FLow clouds.21 mph81%29.59 "Hg3 mi
1:15 PM32 °FLow clouds.23 mph87%29.61 "Hg2 mi
12:55 PM32 °FLow clouds.18 mph87%29.63 "Hg4 mi
12:35 PM32 °FLow clouds.17 mph87%29.64 "Hg3 mi
12:15 PM32 °FMostly cloudy.16 mph87%29.67 "Hg2 mi
11:55 AM32 °FOvercast.18 mph80%29.69 "Hg2 mi
11:35 AM32 °FMostly cloudy.20 mph80%29.70 "Hg7 mi
11:15 AM32 °FBroken clouds.18 mph80%29.70 "Hg5 mi
10:55 AM34 °FBroken clouds.20 mph65%29.73 "Hg3 mi
10:35 AM34 °FOvercast.17 mph56%29.76 "Hg9 mi
10:15 AM34 °FMostly cloudy.20 mph51%29.76 "Hg10 mi
9:55 AM36 °FOvercast.17 mph48%29.76 "Hg10 mi
9:35 AM34 °FPartly sunny.15 mph51%29.79 "Hg10 mi
9:15 AM34 °FSunny.21 mph51%29.82 "Hg10 mi
8:55 AM34 °FSunny.21 mph56%29.84 "Hg10 mi
8:35 AM32 °FSunny.17 mph60%29.86 "Hg10 mi
8:15 AM34 °FSunny.21 mph56%29.87 "Hg10 mi
7:55 AM32 °FSunny.20 mph60%29.88 "Hg10 mi
7:35 AM32 °FSunny.16 mph55%29.91 "Hg10 mi
7:15 AM30 °FSunny.16 mph59%29.93 "Hg10 mi
6:55 AM30 °FSunny.14 mph59%29.95 "Hg10 mi
6:35 AM30 °FClear.15 mph59%29.97 "Hg10 mi
6:15 AM30 °FClear.12 mph59%29.98 "Hg10 mi
5:55 AM30 °FClear.14 mph59%29.97 "Hg10 mi
5:35 AM30 °FClear.16 mph59%29.96 "Hg10 mi
5:15 AM30 °FClear.10 mph64%29.97 "Hg10 mi
4:55 AM30 °FClear.10 mph64%29.98 "Hg10 mi
4:35 AM30 °FClear.12 mph64%29.99 "Hg10 mi
4:15 AM28 °FClear.14 mph69%30.00 "Hg10 mi
3:55 AM28 °FClear.10 mph69%30.02 "Hg10 mi
3:35 AM28 °FClear.12 mph69%30.02 "Hg10 mi
3:15 AM28 °FClear.12 mph69%30.03 "Hg10 mi
2:55 AM28 °FClear.12 mph69%30.05 "Hg10 mi
2:35 AM28 °FClear.14 mph69%30.06 "Hg10 mi
2:15 AM28 °FClear.12 mph64%30.07 "Hg10 mi
1:55 AM28 °FClear.12 mph64%30.08 "Hg10 mi
1:35 AM28 °FClear.12 mph64%30.08 "Hg10 mi
1:15 AM28 °FClear.12 mph69%30.10 "Hg10 mi
12:55 AM28 °FClear.13 mph69%30.11 "Hg10 mi
12:35 AM28 °FClear.12 mph69%30.12 "Hg10 mi
12:15 AM28 °FClear.14 mph69%30.12 "Hg10 mi
11:55 PM
Sat, Mar 28
28 °FClear.14 mph74%30.13 "Hg10 mi
11:35 PM28 °FClear.13 mph69%30.14 "Hg10 mi
11:15 PM28 °FClear.14 mph69%30.15 "Hg10 mi
10:55 PM28 °FClear.12 mph69%30.15 "Hg10 mi
10:35 PM28 °FClear.9 mph69%30.16 "Hg10 mi
10:15 PM28 °FClear.12 mph69%30.17 "Hg10 mi
9:55 PM28 °FClear.9 mph74%30.16 "Hg10 mi
9:35 PM28 °FClear.12 mph74%30.17 "Hg10 mi
9:15 PM30 °FClear.9 mph69%30.17 "Hg10 mi
8:55 PM30 °FClear.10 mph69%30.17 "Hg10 mi
8:35 PM30 °FClear.9 mph69%30.18 "Hg10 mi
8:15 PM30 °FClear.9 mph69%30.17 "Hg10 mi
7:55 PM30 °FClear.9 mph69%30.17 "Hg10 mi
7:35 PM30 °FClear.9 mph75%30.17 "Hg10 mi
7:15 PM34 °FClear.9 mph48%30.17 "Hg10 mi
Weather by CustomWeather, © 2015

See weather overviewHow to use our weather pages